Tracking 19212 objects as of 17-Jul-2018
HD Live streaming from Space Station
objects crossing your sky now

FENGYUN 1C DEB

Track FENGYUN 1C DEB now!
10-day predictions


NORAD ID: 37911
Int'l Code: 1999-025ENL
Perigee: 834.0 km
Apogee: 1,065.1 km
Inclination: 99.4 °
Period: 103.9 minutes
Semi major axis: 7320 km
RCS: 0.0022 m2 (small)
Launch date: May 10, 1999
Source: People's Republic of China (PRC)
Launch site: Taiyaun Space Center, China (TSC)

Note: This is SATELLITE DEBRIS
aabbcc
Your satellite tracking list
Your tracking list is empty




NASA's NSSDC Master Catalog

Two Line Element Set (TLE):
1 37911U 99025ENL 18195.86680421 +.00000508 +00000-0 +43589-3 0  9990
2 37911 099.4470 222.8164 0157839 176.2726 183.9645 13.86075089391089
Source of the keplerian elements: AFSPC